Tracking 35275 objects as of 8-Sep-2026
HD Live streaming from Space Station
objects crossing your sky now

SOYUZ 18 DEB


SOYUZ 18 DEB is no longer on orbit


NORAD ID: 7949
Int'l Code: 1975-044F
Launch date: May 24, 1975
Source: Commonwealth of Independent States (former USSR) (CIS)
Launch site: TYURATAM MISSILE AND SPACE COMPLEX (TTMTR)
Decay date: 1975-06-17

Note: This is SATELLITE DEBRIS
Your satellite tracking list
Your tracking list is empty




NASA's NSSDC Master Catalog

Two Line Element Set (TLE):
1 07949U 75044  F 75165.02888296  .02598753 +00000-0 +12171-1 0  9998
2 07949 051.5913 010.6332 0004406 070.6259 289.5175 15.75842767026808
Source of the keplerian elements: AFSPC